Belmar-Farmingdale, NJ

7:31 PM EST on November 20, 2019 (GMT -0500)
Allaire

Weather History for KBLM - September, 2019

Change the Weather History Date:

Saturday, September 7, 2019

  Actual Average Record
Temperature  
Mean Temperature 66 °F -  
Max Temperature 78 °F 75 °F 91 °F (1998)
Min Temperature 55 °F 60 °F 51 °F (2002)
Cooling Degree Days 2    
Growing Degree Days 16 (Base 50)    
Moisture  
Dew Point 55 °F    
Average Humidity 73    
Maximum Humidity 100    
Minimum Humidity 43    
Precipitation  
Precipitation 0.00 in - - ()
Sea Level Pressure  
Sea Level Pressure 29.82 in    
Wind  
Wind Speed 9 mph ()    
Max Wind Speed 16 mph    
Max Gust Speed 21 mph    
Visibility 10.0 miles    
Events Rain    
Averages and records for this station are not official NWS values.
T = Trace of Precipitation, MM = Missing Value Source: Averaged Metar Reports

Daily Weather History Graph

Daily Weather History Graph

Search for Another Location

Airport or City:

Astronomy

Sep. 07, 2019 Rise Set
Actual Time 6:29 AM EDT 7:18 PM EDT
Civil Twilight 6:01 AM EDT 7:46 PM EDT
Nautical Twilight 5:29 AM EDT 8:18 PM EDT
Astronomical Twilight 4:55 AM EDT 8:52 PM EDT
Moon 3:32 PM EDT (9/7) 12:19 AM EDT (9/7)
Length of Visible Light 13h 44m
Length of Day
12h 49m
Waxing Gibbous, 65% of the Moon is Illuminated
Sep 7
Waxing Gibbous
Sep 14
Full
Sep 21
Last Quarter
Sep 28
New
Oct 5
First Quarter

Hourly Weather History & Observations

Time (EDT) Temp. Dew Point Humidity Pressure Visibility Wind Dir Wind Speed Gust Speed Precip Events Conditions
12:56 AM 60.1 °F 55.9 °F 86% 29.74 in 10.0 mi NNW 12.7 mph - N/A   Overcast
1:08 AM 60.8 °F 55.4 °F 82% 29.74 in 10.0 mi NW 15.0 mph 20.7 mph N/A   Overcast
1:56 AM 59.0 °F 55.9 °F 90% 29.74 in 10.0 mi NNW 16.1 mph - 0.00 in Rain Light Rain
2:56 AM 57.9 °F 55.9 °F 93% 29.75 in 10.0 mi NNW 11.5 mph - 0.00 in   Overcast
3:18 AM 57.2 °F 55.4 °F 94% 29.75 in 10.0 mi NNW 10.4 mph - N/A   Mostly Cloudy
3:56 AM 59.0 °F 55.0 °F 87% 29.75 in 10.0 mi NW 9.2 mph - N/A   Overcast
4:42 AM 57.2 °F 55.4 °F 94% 29.76 in 10.0 mi WNW 8.1 mph - N/A   Overcast
4:56 AM 57.0 °F 55.0 °F 93% 29.77 in 10.0 mi NW 10.4 mph - N/A   Overcast
5:30 AM 55.4 °F 55.4 °F 100% 29.78 in 10.0 mi WNW 9.2 mph - N/A   Partly Cloudy
5:56 AM 55.9 °F 54.0 °F 93% 29.80 in 10.0 mi WNW 9.2 mph - N/A   Clear
6:56 AM 55.0 °F 54.0 °F 96% 29.81 in 10.0 mi NW 8.1 mph - N/A   Clear
7:56 AM 59.0 °F 54.0 °F 83% 29.83 in 10.0 mi NW 9.2 mph - N/A   Clear
8:56 AM 62.1 °F 53.1 °F 72% 29.85 in 10.0 mi NNW 9.2 mph - N/A   Clear
9:56 AM 66.0 °F 54.0 °F 65% 29.85 in 10.0 mi West 11.5 mph - N/A   Clear
10:56 AM 68.0 °F 54.0 °F 61% 29.84 in 10.0 mi NW 12.7 mph - N/A   Clear
11:56 AM 72.0 °F 55.0 °F 55% 29.84 in 10.0 mi NW 13.8 mph - N/A   Clear
12:56 PM 73.9 °F 54.0 °F 50% 29.83 in 10.0 mi WNW 13.8 mph - N/A   Clear
1:56 PM 75.0 °F 54.0 °F 48% 29.83 in 9.0 mi WNW 12.7 mph 19.6 mph N/A   Partly Cloudy
2:56 PM 77.0 °F 55.0 °F 47% 29.82 in 10.0 mi NW 12.7 mph - N/A   Mostly Cloudy
3:56 PM 78.1 °F 54.0 °F 43% 29.83 in 10.0 mi West 13.8 mph 19.6 mph N/A   Mostly Cloudy
4:56 PM 75.0 °F 55.0 °F 50% 29.84 in 10.0 mi West 5.8 mph - N/A   Mostly Cloudy
5:56 PM 73.9 °F 57.0 °F 55% 29.86 in 10.0 mi WNW 4.6 mph - N/A   Overcast
6:56 PM 73.9 °F 57.9 °F 57% 29.87 in 10.0 mi West 4.6 mph - N/A   Overcast
7:56 PM 70.0 °F 57.0 °F 63% 29.89 in 10.0 mi WSW 4.6 mph - N/A   Partly Cloudy
8:56 PM 66.9 °F 57.9 °F 73% 29.92 in 10.0 mi WSW 5.8 mph - N/A   Clear
9:56 PM 64.9 °F 57.9 °F 78% 29.93 in 10.0 mi WSW 3.5 mph - N/A   Clear
10:56 PM 64.9 °F 55.9 °F 73% 29.93 in 10.0 mi SW 3.5 mph - N/A   Mostly Cloudy
11:56 PM 64.0 °F 55.9 °F 75% 29.93 in 10.0 mi SW 4.6 mph - N/A   Mostly Cloudy